User: anonymous   Login
Location: B?jaj?g
(11.7167°N, 92.6667°E)
Time: 11:42:18
(UTC+00:00)
Language:

IUS-13 SRM-1 - Orbit

View from above orbital plane
View from above orbital plane
View from above satellite
View from above satellite

Ground track
Ground track

The orbit data is extracted from the following two-line orbital elements,

1 22315U 93003C   21167.11265528  .00001864  00000-0  37929-3 0  9997
2 22315  26.8553 110.4836 6283846  56.8475 348.3860  3.62828831311715
Epoch (UTC): 16 June 2021 02:42:13
Eccentricity: 0.6283846
inclination: 26.8553°
perigee height: 270 km
apogee height: 22753 km
right ascension of ascending node: 110.4836°
argument of perigee: 56.8475°
revolutions per day: 3.62828831
mean anomaly at epoch: 348.3860°
orbit number at epoch: 31171

The dashed part of the orbit path shows where the satellite is in the earth's shadow,  

DLR